#timestamp,LO_Frequency,Hit,StdDev 
1600930815.4,286047001.9,N
1600930835.2,286047003.9,P
1600930855.0,286047001.5,N
1600930855.9,286047001.5,N
1600930875.8,286047001.6,N
1600930895.6,286047004.3,Y
1600930915.5,286047002.4,P
1600930935.3,286047002.3,P
1600930955.1,286047002.7,P
1600930975.9,286047000.7,N
1600930995.7,286047000.9,N
1600931015.5,286046998.4,N
1600931035.4,286047001.1,N
1600931055.2,286046998.3,N
1600931075.1,286046999.2,N
1600931076.0,286046999.2,N
1600931095.8,286046998.3,N
1600931115.6,286046999.6,N
1600931135.5,286046999.5,N
1600931155.3,286046999.5,N
1600931175.1,286046996.5,N
1600931195.9,286046998.2,N
1600931215.7,286046998.6,N
1600931235.6,286046998.3,N
1600931255.4,286046999.2,N
1600931275.2,286046999.1,N
1600931295.1,286046996.8,N
1600931296.0,286046996.8,N
1600931315.8,286046996.6,N
1600931335.6,286046998.1,N
1600931355.5,286046998.4,N
1600931375.3,286046998.3,N
1600931395.1,286046998.6,N
1600931415.9,286046999.2,N
1600931435.7,286046999.1,N
1600931455.6,286046997.2,N
1600931475.4,286046996.5,N
1600931495.2,286046996.7,N
1600931515.1,286046998.1,N
1600931516.0,286046998.1,N
1600931535.8,286046998.8,N
1600931555.6,286046998.3,N
1600931575.5,286046997.0,N
1600931595.3,286046999.1,N
1600931615.2,286046996.7,Y
1600931635.9,286047000.2,P
1600931655.7,286046999.8,N
1600931675.6,286046998.2,N
1600931695.4,286046998.5,N
1600931715.2,286046998.4,N
1600931735.1,286047000.7,N
1600931736.0,286047000.7,N
1600931755.8,286047000.0,N
1600931775.7,286047002.8,N
1600931795.5,286046999.8,N
1600931815.4,286047001.1,N
1600931835.2,286047000.8,N
1600931855.0,286047000.7,N
1600931855.9,286047000.7,N
1600931875.8,286047000.2,N
1600931895.6,286046998.2,N
1600931915.4,286047001.1,N
1600931935.3,286046999.7,N
1600931955.1,286047000.0,N
1600931975.9,286047000.5,N
1600931995.7,286047000.4,N
1600932015.5,286047002.0,N
1600932035.4,286047002.2,N
1600932055.2,286047002.7,N
1600932075.0,286046999.7,N
1600932075.9,286046999.7,N
1600932095.8,286047000.3,N
1600932115.6,286046999.9,N
1600932135.5,286047002.1,N
1600932155.3,286047002.6,N
1600932175.1,286047001.8,N
1600932195.9,286047001.1,N
1600932215.7,286047000.7,N
1600932235.5,286047000.8,N
1600932255.4,286047001.0,N
1600932275.2,286047000.0,N
1600932325.1,286047000.6,E
1600932335.9,286047001.0,N
1600932355.7,286046998.5,P
1600932375.6,286047001.2,N
1600932395.4,286047001.1,N
1600932415.3,286047000.0,N
1600932435.1,286047000.0,N
1600932436.0,286047000.0,N
1600932455.8,286047000.2,N
1600932475.7,286047002.1,N
1600932495.5,286047002.1,N
1600932515.3,286047000.0,N
1600932535.2,286046999.9,N
1600932555.0,286047000.5,N
1600932555.9,286047000.5,N
1600932575.8,286046998.3,N
1600932595.6,286047001.2,N
1600932615.4,286047000.7,N
1600932635.3,286046999.7,N
1600932655.1,286046998.6,N
1600932675.8,286046999.2,N
1600932695.7,286046998.9,N
1600932715.5,286046998.3,N
1600932735.4,286046998.2,N
1600932755.2,286046998.4,N
1600932775.0,286046998.9,N
1600932775.9,286046998.9,N
1600932795.8,286046998.2,N
1600932815.7,286047001.0,N
1600932835.6,286047001.0,N
1600932855.4,286047001.0,N
1600932875.2,286047000.6,N
1600932895.1,286046998.3,N
1600932896.0,286046998.3,N
1600932915.8,286046998.4,N
1600932935.7,286046998.5,N
1600932955.5,286047000.9,N
1600932975.3,286046999.9,N
1600932995.2,286047000.4,N
1600933015.0,286046998.1,N
1600933015.9,286046998.1,N
1600933035.8,286047000.6,N
1600933055.6,286047000.8,N
1600933075.4,286047001.1,N
1600933095.3,286046998.5,N
1600933115.1,286046999.0,N
1600933135.8,286047000.4,N
1600933155.7,286046998.5,N
1600933175.5,286046998.1,N
1600933195.4,286047000.4,N
1600933215.2,286046999.9,N
1600933235.0,286047000.8,N
1600933235.9,286047000.8,N
1600933255.8,286047000.5,N
1600933275.6,286046999.9,N
1600933295.4,286047000.9,N
1600933315.3,286046999.8,N
1600933335.1,286046999.7,N
1600933355.9,286047002.5,N
1600933375.7,286047002.5,N
1600933395.5,286047002.8,N
1600933415.4,286046999.9,N
1600933435.2,286047000.2,N
1600933455.0,286047002.4,N
1600933455.9,286047002.4,N
1600933475.8,286047002.4,N
1600933495.6,286047001.6,N
1600933515.5,286047001.3,N
1600933535.3,286047002.0,N
1600933555.1,286046999.8,N
1600933575.9,286047001.0,N
1600933595.7,286046998.6,N
1600933615.5,286047000.8,N
1600933635.4,286047001.0,N
1600933655.2,286046999.9,N
1600933675.1,286047000.7,N
1600933676.0,286047000.7,N
1600933695.8,286047000.7,N
1600933715.6,286047001.0,N
1600933735.5,286047000.9,N
1600933755.3,286047000.9,N
1600933775.1,286047000.8,N
1600933795.9,286047001.2,N
1600933815.7,286046998.1,N
1600933835.6,286046998.3,N
1600933855.4,286046998.8,N
1600933875.2,286047001.2,N
1600933895.1,286046999.4,N
1600933896.0,286046999.4,N
1600933915.8,286046999.3,N
1600933935.6,286046999.3,N
1600933955.5,286046998.4,N
1600933975.3,286046996.5,N
1600933995.2,286046999.3,N
1600934015.9,286046996.6,N
1600934035.7,286046997.0,N
1600934055.6,286046998.7,N
1600934075.4,286046996.8,N
1600934095.2,286046996.8,N
1600934115.1,286046999.6,N
1600934116.0,286046999.6,N
1600934135.8,286046999.6,N
1600934155.7,286046997.5,N
1600934175.5,286046999.1,N
1600934195.3,286046998.9,N
1600934215.2,286046998.6,N
1600934235.0,286046997.8,N
1600934235.9,286046997.8,N
1600934255.7,286046994.9,Y
1600934275.6,286046999.6,P
1600934295.4,286046997.0,P
1600934315.3,286046997.9,N
1600934335.1,286046997.5,N
1600934336.0,286046997.5,N
1600934355.8,286046995.7,Y
1600934375.7,286046998.9,P
1600934395.5,286046999.4,N
